Regional Weather Roundup
Issued by NWS Grand Forks, ND

Home | Current Version | Previous Version | Graphics & Text | Print | Product List | Glossary On
Versions: 1 2 3 4 5 6 7 8 9 10 11 12 13 14 15 16 17 18 19 20 21 22 23 24 25 26 27 28 29 30 31 32 33 34 35 36 37 38 39 40 41 42 43 44 45 46 47 48 49 50
000
ASUS43 KFGF 280610
RWRFGF
PRAIRIE TO PINES  WEATHER ROUNDUP
NATIONAL WEATHER SERVICE EASTERN NORTH DAKOTA/GRAND FORKS ND
1200 AM CST SAT FEB 28 2015

 **SATELLITE DATA USED TO AUGMENT SKY COVER AT AUTOMATED STATIONS**
 *****  WEATHER ACROSS EASTERN NORTH DAKOTA  *****

CITY           SKY/WX    TMP DP  RH WIND       PRES   REMARKS
GRAND FORKS    MOCLDY     4  -3  73 S12       30.32F WCI -12
6HR MIN TEMP:   2; 6HR MAX TEMP:  13;

GRAND FRKS AFB MOCLDY     6  -2  70 S10       30.30F WCI  -9
GRAND FRKS NWS   N/A      5 N/A N/A S6          N/A  WCI  -6
DEVILS LAKE    PTCLDY     7  -2  66 S15       30.20S WCI -11
6HR MIN TEMP:   1; 6HR MAX TEMP:  10;

FARGO          PTCLDY     8  -2  63 S10       30.36F WCI  -6
WAHPETON ARPT  FAIR       5  -2  72 S10       30.38F WCI -10
$$

 ***** WEATHER ACROSS CENTRAL AND WESTERN NORTH DAKOTA  *****

CITY           SKY/WX    TMP DP  RH WIND       PRES   REMARKS
BISMARCK       CLOUDY     9   2  73 SE8       30.16F WCI  -3
6HR MIN TEMP:   8; 6HR MAX TEMP:  17;

MINOT          CLOUDY    14   2  58 S10G21    30.09F WCI   1
6HR MIN TEMP:   6; 6HR MAX TEMP:  16;

JAMESTOWN      PTCLDY     3  -3  76 S13       30.23F WCI -14
6HR MIN TEMP:   1; 6HR MAX TEMP:  11;

MINOT AFB      CLOUDY    11   5  76 S16       30.09F WCI  -6
GARRISON         N/A     11   3  70 S9        30.09F WCI  -2
WILLISTON      MOCLDY    13   5  70 N3        30.04F
6HR MIN TEMP:  13; 6HR MAX TEMP:  25;

DICKINSON      MOCLDY    12   4  70 S8        29.99F WCI   0
6HR MIN TEMP:  11; 6HR MAX TEMP:  23;

HETTINGER      PTCLDY    12   3  67 SE5       30.02S WCI   4
6HR MIN TEMP:  10; 6HR MAX TEMP:  23;

$$

 *****  OTHER AIRPORT OBSERVATIONS IN OUR AREA  *****

CITY           SKY/WX    TMP DP  RH WIND       PRES   REMARKS
WALHALLA         N/A     10   0  61 SW13G21   30.25S WCI  -5
GRAFTON AIRPOR NOT AVBL
VALLEY CITY AR FAIR       0  -2  92 S12       30.27F WCI -18
CANDO          FAIR       1  -2  85 S6        30.19F WCI -10
CAVALIER APRT  FAIR       1  -2  85 SE3       30.28S
GWINNER        CLEAR      5   0  78 S6        30.32F WCI  -6
ROLLA          FAIR       1  -2  85 S7        30.15F WCI -11
 ***** THE ABOVE OBSERVATIONS ARE NON NWS ARE NOT QUALITY
       CONTROLLED AND MAY MIS-REPORT RAIN FOR SNOW...
$$

  *****  WEATHER ACROSS NORTHERN MINNESOTA  *****

CITY           SKY/WX    TMP DP  RH WIND       PRES   REMARKS
FLAG ISLAND    PTCLDY    -4  -8  84 S8        30.28S WCI -19
WARROAD        PTCLDY     3  -2  78 SW7       30.31S WCI  -9
ROSEAU         FAIR       7   0  72 SW12      30.31S WCI  -9
HALLOCK        NOT AVBL
THF RVR FALLS  PTCLDY     1  -6  71 S8        30.32F WCI -12
6HR MIN TEMP:   1; 6HR MAX TEMP:  10;

BAUDETTE       MOCLDY     0  -7  72 S6        30.31S WCI -12
6HR MIN TEMP:  -1; 6HR MAX TEMP:  13;

WASKISH        PTCLDY     3  -4  72 CALM      30.34S
CROOKSTON      PTCLDY     1  -4  78 S9        30.36F WCI -14
STEPHEN NDAWN    N/A      3  -2  78 S12         N/A  WCI -13
GREENBUSH NDAW   N/A      7   0  72 MISG        N/A
$$
  *****  WEATHER ACROSS CENTRAL AND WEST MINNESOTA  *****

CITY           SKY/WX    TMP DP  RH WIND       PRES   REMARKS
FOSSTON        PTCLDY     3  -4  72 S14       30.34S WCI -15
BEMIDJI        PTCLDY     2  -5  72 S3        30.33S
PARK RAPIDS    CLEAR      0  -7  72 S6        30.35F WCI -12
6HR MIN TEMP:  -2; 6HR MAX TEMP:  11;

ELBOW LAKE     FAIR       1  -4  78 S10       30.39F WCI -15
6HR MIN TEMP:  -1; 6HR MAX TEMP:   9;

WADENA         CLEAR     -4  -9  77 S6        30.38S WCI -16
DETROIT LAKES  PTCLDY     3  -4  72 S5        30.36S WCI  -6
MOORHEAD       CLEAR      7   1  78 S9        30.37F WCI  -7
FERGUS FALLS   CLEAR      1  -6  71 S10       30.43F WCI -14
MORRIS MN      CLEAR      0  -6  78 S9        30.40F WCI -16
STAPLES        CLEAR     -2  -8  78 S5        30.39S WCI -12
$$
  *****  WEATHER ELSEWHERE ACROSS MINNESOTA  *****

CITY           SKY/WX    TMP DP  RH WIND       PRES   REMARKS
DULUTH         CLEAR      6  -6  57 SW9       30.39R WCI  -8
6HR MIN TEMP:   5; 6HR MAX TEMP:  16;

INTRNTL FALLS  CLEAR    -11 -17  75 SW5       30.33S WCI -23
6HR MIN TEMP: -11; 6HR MAX TEMP:  14;

ELY            NOT AVBL
CLOQUET        CLEAR      3  -8  60 SW7       30.41S WCI  -9
WHEATON        FAIR       1  -4  78 SE13      30.41F WCI -16
BRAINERD       CLEAR      2  -6  69 S6        30.42S WCI  -9
6HR MIN TEMP:   0; 6HR MAX TEMP:  13;

HIBBING        PTCLDY   -11 -19  68 CALM      30.37R
6HR MIN TEMP: -11; 6HR MAX TEMP:  16;

ALEXANDRIA     CLEAR      4  -3  73 S9        30.40S WCI -10
6HR MIN TEMP:   3; 6HR MAX TEMP:  10;

SAINT CLOUD    CLEAR      1  -4  79 S7        30.47S WCI -12
6HR MIN TEMP:   1; 6HR MAX TEMP:  14;

MINNEAPOLIS    CLEAR      5  -2  72 S6        30.54R WCI  -6
6HR MIN TEMP:   5; 6HR MAX TEMP:  12;

$$

  *****  WEATHER ACROSS SOUTH DAKOTA  *****

CITY           SKY/WX    TMP DP  RH WIND       PRES   REMARKS
SIOUX FALLS    CLEAR      6  -1  73 S13       30.41F WCI -10
6HR MIN TEMP:   6; 6HR MAX TEMP:  13;

BROOKINGS      NOT AVBL
WATERTOWN      CLEAR      2  -4  76 S14       30.33F WCI -16
6HR MIN TEMP:   2; 6HR MAX TEMP:   8;

HURON          CLEAR      8   1  73 S15       30.34F WCI  -9
6HR MIN TEMP:   8; 6HR MAX TEMP:  18;

SISSETON         N/A      4  -2  76 S12       30.35F WCI -12
ABERDEEN       PTCLDY     9   1  70 S17       30.31S WCI  -9
6HR MIN TEMP:   2; 6HR MAX TEMP:  11;

MITCHELL       CLEAR     11   2  67 S13       30.38S WCI  -4
PIERRE         CLEAR     13  -1  54 SE8       30.20F WCI   2
6HR MIN TEMP:  13; 6HR MAX TEMP:  25;

MOBRIDGE       PTCLDY    12   0  58 SE8       30.15S WCI   0
RAPID CITY     CLEAR     10   6  84 SE10      30.01F WCI  -4
6HR MIN TEMP:  10; 6HR MAX TEMP:  22;

$$

  *****  SOME WEATHER IN NEARBY STATES *****

CITY           SKY/WX    TMP DP  RH WIND       PRES   REMARKS
GLASGOW MT     CLOUDY     9  -1  64 N8        30.10S WCI  -3
6HR MIN TEMP:   8; 6HR MAX TEMP:  20;

GREAT FALLS MT CLOUDY    15  10  80 CALM      30.09S
6HR MIN TEMP:  15; 6HR MAX TEMP:  18; 6HR PCP: TRACE;

CHEYENNE WY    PTCLDY     4   1  88 SW7       29.82F WCI  -8
6HR MIN TEMP:   5; 6HR MAX TEMP:  11; 6HR PCP: TRACE;

SCOTTSBLUFF NE CLEAR     13   6  74 SE12      30.01S WCI  -1
6HR MIN TEMP:  13; 6HR MAX TEMP:  21; 6HR PCP: TRACE;

OMAHA NE       CLEAR      9   1  70 SE6       30.52F WCI  -1
6HR MIN TEMP:   9; 6HR MAX TEMP:  18;

DES MOINES IA  CLEAR      6  -3  66 SE8       30.58F WCI  -7
6HR MIN TEMP:   6; 6HR MAX TEMP:  13;

DAVENPORT IA   MOCLDY    -6 -12  75 CALM      30.65F
6HR MIN TEMP:  -7; 6HR MAX TEMP:   3;

CHICAGO IL     CLEAR      1  -6  72 W5        30.66R WCI  -9
6HR MIN TEMP:   1; 6HR MAX TEMP:  11;

EAU CLAIRE WI  CLEAR      0  -7  72 SW6       30.54S WCI -12
6HR MIN TEMP:   0; 6HR MAX TEMP:  11;

LA CROSSE WI   CLEAR      1  -6  72 SE5       30.62S WCI  -9
6HR MIN TEMP:   0; 6HR MAX TEMP:  11;

$$

  *****  SOME NATIONAL WEATHER *****

CITY           SKY/WX    TMP DP  RH WIND       PRES   REMARKS
LA GUARDIA NY  CLEAR     20  -2  38 NW18      30.64R WCI   5
6HR MIN TEMP:  20; 6HR MAX TEMP:  28;

RALEIGH NC     CLEAR     29  18  63 NE6       30.59R WCI  23
6HR MIN TEMP:  29; 6HR MAX TEMP:  37;

ATLANTA GA     MOCLDY    32  20  61 N7        30.44S
6HR MIN TEMP:  32; 6HR MAX TEMP:  41;

NEW ORLEANS LA PTCLDY    46  32  58 NE14      30.40S
6HR MIN TEMP:  46; 6HR MAX TEMP:  49;

OKLAHOMA CITY  FLURRIES  19  12  74 E8        30.43F WCI   9
6HR MIN TEMP:  19; 6HR MAX TEMP:  20; 6HR PCP: TRACE;

ALBUQUERQUE NM LGT SNOW  21  19  92 N9        29.91F VSB 3/4 WCI  11
6HR MIN TEMP:  21; 6HR MAX TEMP:  25; 6HR PCP:  0.17;

SALT LAKE CITY PTCLDY    33  24  69 S8        29.69F
6HR MIN TEMP:  33; 6HR MAX TEMP:  43;

LOS ANGELES CA PTCLDY    58  50  75 W20       29.77R


USA.gov is the U.S. government's official web portal to all federal, state and local government web resources and services.